sat.trackr.live / text

‹ back to catalog

STARLINK-37464

NORAD 69266 · 2026-117AE

PAYLOAD ACTIVE UNKNOWN

§ Identity

Operator
Country
US
Launch date
2026-05-29
Launch site
AFETR
Launch vehicle
Mass (kg)
RCS (m²)

Purposes: comms

External: N2YO · Heavens-Above · Gunter

§ Orbital elements

Epoch: 2026-09-20T02:51:23.758272Z

Period
93.85 min
Inclination
53.1561°
Eccentricity
0.0000886
Mean motion
15.34409533 rev/d
Perigee alt
462.1 km
Apogee alt
463.3 km
Semi-major
6,840.8 km
B*
8.5544e-4
RAAN
155.1375°
Arg perigee
86.9468°
Mean anomaly
273.1636°
Rev number
1,761

§ Raw data

STARLINK-374641 69266U 26117AE  26263.11902498  .00028646  00000+0  85544-3 0  99932 69266  53.1561 155.1375 0000886  86.9468 273.1636 15.34409533 17612

JSON: /api/v1/satellites/69266 · /tle

For live sub-satellite position, see the globe view (requires WebGL).

§ Visibility from observer

Set your observer location to see the next 7 days of passes ≥ 10°. The values pass through the URL so the page stays shareable.

No JS? Fill the form by hand. The geolocation button needs JavaScript.